Hourly Data Report for October 27, 2015

All times are specified in Local Standard Time (LST). Add 1 hour to adjust for Daylight Saving Time where and when it is observed.

WINNIPEG A CS
MANITOBA

49°55'00.000" N
97°14'58.000" W
238.70 m
502S001
71849
XWG

Download Data

Hourly Data (October 2015)
Hourly Data Report for October 27, 2015
Temp Definition
°C
Dew Point Temp Definition
°C
Rel Hum Definition
%
Wind Dir Definition
10's deg

Wind Spd Definition
km/h
Visibility Definition
km
Stn Press Definition
kPa
Hmdx Definition


Wind Chill Definition


Weather Definition


TIME
00:00 4.6 0.4 74 13 21   99.53     LegendNANA
01:00 4.0 0.4 78 13 19   99.50     LegendNANA
02:00 3.4 0.6 82 13 16   99.46     LegendNANA
03:00 2.8 0.3 84 10 12   99.36     LegendNANA
04:00 3.0 0.5 84 10 17   99.25     LegendNANA
05:00 3.8 1.3 84 11 23   99.10     LegendNANA
06:00 4.2 2.0 86 12 22   99.02     LegendNANA
07:00 4.1 3.0 93 12 22   98.94     LegendNANA
08:00 4.8 3.7 93 13 22   98.86     LegendNANA
09:00 5.3 4.2 93 12 25   98.77     LegendNANA
10:00 6.2 4.7 91 13 26   98.62     LegendNANA
11:00 6.3 4.9 91 14 25   98.63     LegendNANA
12:00 6.8 5.3 90 14 22   98.50     LegendNANA
13:00 7.7 5.8 88 13 24   98.30     LegendNANA
14:00 8.1 6.1 87 13 24   98.18     LegendNANA
15:00 8.8 6.5 86 13 24   98.06     LegendNANA
16:00 9.3 6.4 83 15 17   98.00     LegendNANA
17:00 9.4 6.3 81 17 17   97.95     LegendNANA
18:00 8.9 6.6 86 21 9   97.92     LegendNANA
19:00 8.6 6.7 88 19 10   97.84     LegendNANA
20:00 8.0 6.8 92 17 10   97.74     LegendNANA
21:00 8.7 6.9 89 21 22   97.69     LegendNANA
22:00 8.4 7.2 93 20 16   97.60     LegendNANA
23:00 8.2 7.4 95 22 18   97.55     LegendNANA

Notes on Data Quality.

Legend

  • E = Estimated
  • M = Missing
  • NA = Not Available
  • ‡ = Partner data that is not subject to review by the National Climate Archives
Date modified: